Date String (YYYY-MM-DD hh:mm:ss) UTC,Instrument flags,absolute air pressure of the measurement (hPa),sample flow rate (lpm),inlet stack bypass flow (lpm),air temperature of the measurement (°C),ambient temperature measured by the external sensor (°C),aerosol sample conditioner tube jacket temperature (°C),OPC LED temperature (°C),internal box temperature (°C),relative humidity of the measurement (%),span deviation,mass concentration of particles derived from Lorenz-Mie calculation of OPC scattering (μg/m³),mass concentration of particles derived from Lorenz-Mie calculation of OPC scattering (μg/m³),mass concentration of particles derived from Lorenz-Mie calculation of OPC scattering (μg/m³)
DateTimeUTC,F1_M11,P_M11,Q1_M11,Q2_M11,T1_M11,T2_M11,T3_M11,T4_M11,T5_M11,U1_M11,ZSPAN_M11,X2_M11,X0_M11,X1_M11
2023-10-20 06:00:00,SystemResetWarning,0833.2,5.00,000.00,028.7,027.4,000.0,037.1,030.4,10.9,0000.0,0001.41,0005.04,0000.70
2023-10-20 06:01:00,SystemResetWarning,0833.2,5.01,000.00,028.7,027.5,000.0,037.1,030.4,10.7,0000.0,0001.38,0005.02,0000.70
2023-10-20 06:02:00,SystemResetWarning,0833.2,5.01,000.00,028.7,027.5,000.0,037.1,030.4,10.7,0000.0,0001.37,0004.93,0000.70
2023-10-20 06:03:00,SystemResetWarning,0833.2,5.01,000.00,028.7,027.5,000.0,037.1,030.4,10.6,0000.0,0001.36,0004.78,0000.70
2023-10-20 06:04:00,SystemResetWarning,0833.2,4.99,000.00,028.8,027.6,000.0,037.1,030.5,10.4,0000.0,0001.31,0004.35,0000.70
2023-10-20 06:05:00,SystemResetWarning,0833.2,4.99,000.00,028.8,027.6,000.0,037.1,030.5,10.5,0000.0,0001.31,0005.27,0000.70
2023-10-20 06:06:00,SystemResetWarning,0833.2,5.00,000.00,028.8,027.6,000.0,037.1,030.5,10.5,0000.0,0001.29,0004.77,0000.70
2023-10-20 06:07:00,SystemResetWarning,0833.2,5.01,000.00,028.8,027.7,000.0,037.2,030.5,10.6,0000.0,0001.19,0006.08,0000.69
2023-10-20 06:08:00,SystemResetWarning,0833.2,5.02,000.00,028.8,027.7,000.0,037.2,030.5,10.5,0000.0,0001.14,0007.13,0000.66
2023-10-20 06:09:00,SystemResetWarning,0833.2,4.99,000.00,028.9,027.7,000.0,037.2,030.6,10.4,0000.0,0001.13,0007.54,0000.65
2023-10-20 06:10:00,SystemResetWarning,0833.2,4.99,000.00,028.9,027.7,000.0,037.2,030.6,10.4,0000.0,0001.04,0007.58,0000.64
2023-10-20 06:11:00,SystemResetWarning,0833.2,5.01,000.00,028.9,027.7,000.0,037.2,030.6,10.3,0000.0,0001.01,0007.53,0000.62
2023-10-20 06:12:00,SystemResetWarning,0833.1,5.01,000.00,028.9,027.7,000.0,037.2,030.6,10.3,0000.0,0001.01,0007.78,0000.60
2023-10-20 06:13:00,SystemResetWarning,0833.1,5.00,000.00,028.9,027.7,000.0,037.3,030.6,10.3,0000.0,0001.05,0008.05,0000.60
2023-10-20 06:14:00,SystemResetWarning,0833.3,5.01,000.00,028.9,027.7,000.0,037.3,030.7,10.3,0000.0,0001.06,0008.50,0000.59
2023-10-20 06:15:00,SystemResetWarning,0833.0,4.98,000.00,029.0,027.7,000.0,037.3,030.7,10.3,0000.0,0001.04,0008.51,0000.59
2023-10-20 06:16:00,SystemResetWarning,0833.0,5.00,000.00,029.0,027.7,000.0,037.3,030.7,10.2,0000.0,0001.03,0008.06,0000.59
2023-10-20 06:17:00,SystemResetWarning,0833.0,5.01,000.00,029.0,027.8,000.0,037.3,030.7,10.4,0000.0,0001.05,0007.91,0000.58
2023-10-20 06:18:00,SystemResetWarning,0833.0,4.98,000.00,029.0,027.8,000.0,037.3,030.7,10.6,0000.0,0001.08,0006.48,0000.59
2023-10-20 06:19:00,SystemResetWarning,0833.2,5.00,000.00,029.0,027.8,000.0,037.3,030.7,10.6,0000.0,0001.14,0005.34,0000.62
2023-10-20 06:20:00,SystemResetWarning,0833.6,5.02,000.00,029.0,027.8,000.0,037.4,030.7,10.8,0000.0,0001.17,0006.67,0000.64
2023-10-20 06:21:00,SystemResetWarning,0833.2,4.99,000.00,029.1,027.8,000.0,037.4,030.7,10.7,0000.0,0001.23,0006.64,0000.66
2023-10-20 06:22:00,SystemResetWarning,0833.1,4.99,000.00,029.1,027.9,000.0,037.4,030.8,10.6,0000.0,0001.32,0006.95,0000.70
2023-10-20 06:23:00,SystemResetWarning,0833.2,5.01,000.00,029.1,027.9,000.0,037.4,030.8,10.5,0000.0,0001.40,0007.06,0000.74
2023-10-20 06:24:00,SystemResetWarning,0833.3,5.02,000.00,029.1,027.9,000.0,037.4,030.8,10.5,0000.0,0001.47,0008.06,0000.77
2023-10-20 06:25:00,SystemResetWarning,0833.1,4.98,000.00,029.1,027.9,000.0,037.5,030.8,10.7,0000.0,0001.52,0007.81,0000.78
2023-10-20 06:26:00,SystemResetWarning,0833.0,5.00,000.00,029.1,027.1,000.0,037.4,030.8,10.7,0000.0,0001.60,0007.92,0000.81
2023-10-20 06:27:00,SystemResetWarning,0833.0,5.00,000.00,029.1,025.1,000.0,037.4,030.6,10.6,0000.0,0001.66,0007.92,0000.83
2023-10-20 06:28:00,SystemResetWarning,0832.9,5.01,000.00,029.0,024.5,000.0,037.3,030.4,10.6,0000.0,0001.69,0007.75,0000.84
2023-10-20 06:29:00,SystemResetWarning,0833.3,5.00,000.00,028.8,024.7,000.0,037.3,030.2,10.6,0000.0,0001.76,0008.44,0000.85
2023-10-20 06:30:00,SystemResetWarning,0833.3,5.00,000.00,028.7,025.1,000.0,037.3,030.1,10.5,0000.0,0001.84,0009.03,0000.87
2023-10-20 06:31:00,SystemResetWarning,0833.3,5.01,000.00,028.7,025.4,000.0,037.3,030.1,10.4,0000.0,0001.90,0008.52,0000.88
2023-10-20 06:32:00,SystemResetWarning,0832.8,5.00,000.00,028.6,025.8,000.0,037.3,030.1,10.3,0000.0,0001.93,0008.70,0000.89
2023-10-20 06:33:00,SystemResetWarning,0833.1,4.99,000.00,028.6,026.1,000.0,037.3,030.2,10.2,0000.0,0001.91,0009.07,0000.89
2023-10-20 06:34:00,SystemResetWarning,0833.2,5.00,000.00,028.6,026.4,000.0,037.2,030.2,10.2,0000.0,0001.92,0008.85,0000.90
2023-10-20 06:35:00,SystemResetWarning,0833.2,5.00,000.00,028.6,026.6,000.0,037.2,030.2,10.1,0000.0,0001.90,0007.96,0000.90
2023-10-20 06:36:00,SystemResetWarning,0833.3,5.01,000.00,028.6,026.7,000.0,037.2,030.2,10.1,0000.0,0001.91,0007.79,0000.90
2023-10-20 06:37:00,SystemResetWarning,0833.0,5.01,000.00,028.6,026.9,000.0,037.2,030.3,10.1,0000.0,0001.91,0008.81,0000.91
2023-10-20 06:38:00,SystemResetWarning,0832.9,4.99,000.00,028.6,027.0,000.0,037.2,030.3,10.1,0000.0,0001.89,0009.35,0000.90
2023-10-20 06:39:00,SystemResetWarning,0833.2,4.99,000.00,028.7,027.1,000.0,037.2,030.3,10.1,0000.0,0001.90,0009.40,0000.90
2023-10-20 06:40:00,SystemResetWarning,0833.0,5.00,000.00,028.7,027.2,000.0,037.2,030.3,9.8,0000.0,0001.96,0009.02,0000.89
2023-10-20 06:41:00,SystemResetWarning,0832.9,5.00,000.00,028.7,027.3,000.0,037.2,030.4,9.6,0000.0,0001.92,0009.05,0000.88
2023-10-20 06:42:00,SystemResetWarning,0832.9,5.01,000.00,028.7,027.3,000.0,037.2,030.4,9.4,0000.0,0001.87,0009.11,0000.87
2023-10-20 06:43:00,SystemResetWarning,0833.0,5.01,000.00,028.7,027.4,000.0,037.2,030.4,8.9,0000.0,0001.83,0009.39,0000.85
2023-10-20 06:44:00,SystemResetWarning,0833.2,5.00,000.00,028.8,027.4,000.0,037.2,030.4,9.1,0000.0,0001.85,0009.51,0000.85
2023-10-20 06:45:00,SystemResetWarning,0833.3,4.98,000.00,028.8,027.5,000.0,037.2,030.5,8.9,0000.0,0001.84,0010.56,0000.83
2023-10-20 06:46:00,SystemResetWarning,0833.3,4.99,000.00,028.8,027.5,000.0,037.2,030.5,8.7,0000.0,0001.81,0011.03,0000.83
2023-10-20 06:47:00,SystemResetWarning,0833.4,5.00,000.00,028.8,027.6,000.0,037.2,030.5,8.7,0000.0,0001.79,0011.65,0000.82
2023-10-20 06:48:00,SystemResetWarning,0833.4,5.02,000.00,028.8,027.6,000.0,037.2,030.5,8.6,0000.0,0001.84,0010.68,0000.81
2023-10-20 06:49:00,SystemResetWarning,0833.1,4.99,000.00,028.9,027.6,000.0,037.2,030.5,8.7,0000.0,0001.90,0010.22,0000.81
2023-10-20 06:50:00,SystemResetWarning,0832.8,5.00,000.00,028.9,027.6,000.0,037.3,030.6,8.6,0000.0,0001.94,0010.31,0000.81
2023-10-20 06:51:00,SystemResetWarning,0832.8,4.99,000.00,028.9,027.7,000.0,037.3,030.6,8.6,0000.0,0001.95,0010.38,0000.84
2023-10-20 06:52:00,SystemResetWarning,0832.8,5.00,000.00,028.9,027.7,000.0,037.3,030.6,8.4,0000.0,0001.95,0009.79,0000.86
2023-10-20 06:53:00,SystemResetWarning,0832.8,5.00,000.00,028.9,027.7,000.0,037.3,030.6,8.5,0000.0,0001.97,0010.10,0000.86
2023-10-20 06:54:00,SystemResetWarning,0832.8,4.99,000.00,029.0,027.7,000.0,037.3,030.6,8.4,0000.0,0002.00,0010.50,0000.87
2023-10-20 06:55:00,SystemResetWarning,0832.8,5.01,000.00,029.0,027.7,000.0,037.3,030.7,8.5,0000.0,0001.97,0010.56,0000.87
2023-10-20 06:56:00,SystemResetWarning,0832.8,5.01,000.00,029.0,027.8,000.0,037.3,030.7,8.4,0000.0,0002.04,0009.55,0000.88
2023-10-20 06:57:00,SystemResetWarning,0832.8,4.98,000.00,029.0,027.8,000.0,037.4,030.7,8.2,0000.0,0002.07,0009.25,0000.89
2023-10-20 06:58:00,SystemResetWarning,0832.9,5.01,000.00,029.0,027.8,000.0,037.4,030.7,8.3,0000.0,0002.12,0008.77,0000.91
2023-10-20 06:59:00,SystemResetWarning,0832.8,5.01,000.00,029.0,027.8,000.0,037.4,030.7,8.5,0000.0,0002.07,0008.63,0000.92
